User: anonymous   Login
Location: Unspecified
(31.6576°N, 0.0000°E)
Time: 19:08:51
(UTC+00:00)
Language:

IMECE - Orbit

View from above orbital plane
View from above orbital plane
View from above satellite
View from above satellite

Ground track
Ground track

The orbit is defined by the following mean orbital elements,

1 56178U          26088.22021774 +.00000000 +00000-0 +93973-4 0 00004
2 56178  98.1285 353.9028 0010915  65.0898 295.1439 14.65835046    09
Epoch (UTC): 29 March 2026 05:17:06
Eccentricity: 0.0010915
inclination: 98.1285°
perigee height: 667 km
apogee height: 682 km
right ascension of ascending node: 353.9028°
argument of perigee: 65.0898°
revolutions per day: 14.65835046
mean anomaly at epoch: 295.1439°

The dashed part of the orbit path shows where the satellite is in the earth's shadow,  

DLR